Flag for Nicaragua Weather past 2 weeks in Managua, Nicaragua

Now
73 °F

Passing clouds.


Feels Like: 72 °F
Forecast: 74 / 89 °F
Wind: No wind

Location: Managua A. C. Sandino

Current Time: Sep 21, 2014 at 4:09:05 AM

Latest Report: Sep 21, 2014 at 3:00 AM


Visibility: N/A

Pressure: 29.83 "Hg

Humidity: 89%

Dew point: 70 °F

Location of ManaguaLocation

Historic Weather in Managua — Graph

°F

Managua temperature yesterday

Maximum temperature yesterday: 90 °F (at 2:00 PM)
Minimum temperature yesterday: 75 °F (at 8:00 PM)
Average temperature yesterday: 80 °F

Past Weeks' High & Low Weather Summary

 TemperatureHumidityPressure
High93 °F (Sep 7, 2:00 PM)94% (Sep 6, 7:00 PM)30.09 "Hg (Sep 6, 7:00 PM)
Low73 °F (Sep 6, 3:00 AM)52% (Sep 9, 11:00 AM)29.68 "Hg (Sep 10, 4:00 PM)
Average81 °F79%29.83 "Hg
* Reported Sep 6 3:00 AM — Sep 21 3:00 AM, Managua, Weather by CustomWeather, © 2014

Note: Actual official high and low records may vary slightly from our data, if they occured in-between our weather recording intervals... More about our weather records

Advertising

Managua weather history for previous 24 hours

 ConditionsComfort  
Time TempWeatherWind HumidityBarometerVisibility
3:00 AM
Sep 21
73 °FPassing clouds.No wind89%29.83 "HgN/A
12:00 AM75 °FPassing clouds.5 mph94%29.86 "HgN/A
11:00 PM
Sep 20
75 °FPassing clouds.5 mph89%29.89 "HgN/A
10:00 PM75 °FPassing clouds.5 mph89%29.89 "HgN/A
9:00 PM77 °FPassing clouds.5 mph83%29.89 "HgN/A
8:00 PM75 °FPassing clouds.5 mph89%29.89 "HgN/A
7:00 PM77 °FPassing clouds.5 mph89%29.86 "Hg6 mi
6:00 PM82 °FRain. Passing clouds.16 mph84%29.83 "Hg6 mi
5:00 PM86 °FScattered clouds.5 mph70%29.77 "HgN/A
4:00 PM88 °FScattered clouds.7 mph66%29.77 "HgN/A
3:00 PM90 °FPassing clouds.12 mph63%29.77 "HgN/A
2:00 PM90 °FScattered clouds.12 mph63%29.80 "HgN/A
1:00 PM86 °FScattered clouds.9 mph70%29.80 "HgN/A
12:00 PM84 °FScattered clouds.9 mph74%29.83 "HgN/A
7:00 AM77 °FScattered clouds.5 mph89%29.86 "HgN/A
6:00 AM77 °FScattered clouds.No wind94%29.83 "HgN/A
5:00 AM77 °FThundershowers. Passing clouds.5 mph94%29.83 "HgN/A
4:00 AM77 °FPassing clouds.No wind94%29.83 "HgN/A
Weather by CustomWeather, © 2014

See weather overviewHow to use our weather pages